| time (UTC) | temp C | wind direction | speed KPH | gust KPH | rain 1hr cm | rain 24hr cm | rain mn cm | humidity % | barometer mb |
| 20260507162701 | 15 | 263 | 6.4 | 9.7 | 0.00 | 0.00 | 0.00 | 40 | 1012.5 |
| 20260507162157 | 15 | 131 | 6.4 | 11.3 | 0.00 | 0.00 | 0.00 | 41 | 1012.4 |
| 20260507161654 | 16 | 284 | 4.8 | 8.0 | 0.00 | 0.00 | 0.00 | 45 | 1012.3 |
| 20260507161150 | 15 | 219 | 3.2 | 9.7 | 0.00 | 0.00 | 0.00 | 45 | 1012.7 |
| 20260507160647 | 15 | 61 | 4.8 | 9.7 | 0.00 | 0.00 | 0.00 | 43 | 1012.7 |
| 20260507160144 | 15 | 62 | 3.2 | 12.9 | 0.00 | 0.00 | 0.00 | 40 | 1012.8 |
| 20260507155639 | 15 | 263 | 3.2 | 11.3 | 0.00 | 0.00 | 0.00 | 42 | 1012.7 |
| 20260507155136 | 14 | 229 | 6.4 | 9.7 | 0.00 | 0.00 | 0.00 | 40 | 1012.7 |
| 20260507154633 | 14 | 30 | 3.2 | 8.0 | 0.00 | 0.00 | 0.00 | 46 | 1012.7 |
| 20260507154130 | 14 | 293 | 6.4 | 16.1 | 0.00 | 0.00 | 0.00 | 41 | 1012.6 |
| 20260507153626 | 13 | 255 | 4.8 | 9.7 | 0.00 | 0.00 | 0.00 | 41 | 1012.6 |
| 20260507153123 | 15 | 41 | 6.4 | 8.0 | 0.00 | 0.00 | 0.00 | 43 | 1012.8 |
| 20260507152619 | 15 | 0 | 1.6 | 9.7 | 0.00 | 0.00 | 0.00 | 46 | 1012.9 |
| 20260507152115 | 15 | 278 | 1.6 | 6.4 | 0.00 | 0.00 | 0.00 | 44 | 1012.7 |
| 20260507151612 | 13 | 104 | 0.0 | 8.0 | 0.00 | 0.00 | 0.00 | 46 | 1013.1 |
| 20260507151109 | 13 | 349 | 0.0 | 6.4 | 0.00 | 0.00 | 0.00 | 47 | 1013.3 |
| 20260507150606 | 13 | 214 | 4.8 | 8.0 | 0.00 | 0.00 | 0.00 | 49 | 1013.4 |
| 20260507145557 | 13 | 89 | 4.8 | 8.0 | 0.00 | 0.00 | 0.00 | 52 | 1013.4 |
| 20260507145056 | 13 | 246 | 1.6 | 4.8 | 0.00 | 0.00 | 0.00 | 44 | 1013.6 |
| 20260507144551 | 13 | 249 | 3.2 | 6.4 | 0.00 | 0.00 | 0.00 | 53 | 1013.5 |
| 20260507144050 | 13 | 343 | 1.6 | 4.8 | 0.00 | 0.00 | 0.00 | 52 | 1013.6 |
| 20260507143546 | 13 | 301 | 3.2 | 8.0 | 0.00 | 0.00 | 0.00 | 50 | 1013.5 |
| 20260507143039 | 13 | 181 | 3.2 | 14.5 | 0.00 | 0.00 | 0.00 | 47 | 1013.7 |
| 20260507142533 | 13 | 312 | 1.6 | 6.4 | 0.00 | 0.00 | 0.00 | 52 | 1013.6 |
| 20260507142031 | 12 | 87 | 4.8 | 9.7 | 0.00 | 0.00 | 0.00 | 47 | 1013.7 |
| 20260507141527 | 12 | 82 | 4.8 | 12.9 | 0.00 | 0.00 | 0.00 | 46 | 1013.8 |
| 20260507141023 | 13 | 37 | 6.4 | 12.9 | 0.00 | 0.00 | 0.00 | 52 | 1013.9 |
| 20260507140520 | 12 | 111 | 6.4 | 11.3 | 0.00 | 0.00 | 0.00 | 47 | 1014.1 |
| 20260507140018 | 13 | 349 | 3.2 | 12.9 | 0.00 | 0.00 | 0.00 | 50 | 1013.9 |
| 20260507135514 | 12 | 216 | 3.2 | 8.0 | 0.00 | 0.00 | 0.00 | 51 | 1014.2 |
| 20260507135012 | 12 | 226 | 4.8 | 8.0 | 0.00 | 0.00 | 0.00 | 54 | 1014.3 |
| 20260507134508 | 12 | 279 | 3.2 | 8.0 | 0.00 | 0.00 | 0.00 | 58 | 1014.0 |
| 20260507134004 | 12 | 333 | 4.8 | 11.3 | 0.00 | 0.00 | 0.00 | 58 | 1014.2 |
| 20260507133500 | 11 | 231 | 4.8 | 6.4 | 0.00 | 0.00 | 0.00 | 61 | 1014.2 |
| 20260507132959 | 10 | 326 | 1.6 | 9.7 | 0.00 | 0.00 | 0.00 | 55 | 1014.2 |
| 20260507132455 | 11 | 253 | 4.8 | 8.0 | 0.00 | 0.00 | 0.00 | 66 | 1014.1 |
| 20260507131951 | 11 | 254 | 1.6 | 6.4 | 0.00 | 0.00 | 0.00 | 60 | 1014.1 |
| 20260507131448 | 11 | 179 | 1.6 | 6.4 | 0.00 | 0.00 | 0.00 | 65 | 1014.1 |
| 20260507130945 | 10 | 240 | 4.8 | 8.0 | 0.00 | 0.00 | 0.00 | 56 | 1014.2 |
| 20260507130442 | 10 | 198 | 0.0 | 8.0 | 0.00 | 0.00 | 0.00 | 64 | 1014.3 |
| 20260507125941 | 10 | 76 | 0.0 | 4.8 | 0.00 | 0.00 | 0.00 | 63 | 1014.1 |
| 20260507125438 | 10 | 277 | 3.2 | 4.8 | 0.00 | 0.00 | 0.00 | 67 | 1014.3 |
| 20260507124935 | 10 | 222 | 1.6 | 8.0 | 0.00 | 0.00 | 0.00 | 69 | 1014.4 |
| 20260507124432 | 10 | 215 | 3.2 | 8.0 | 0.00 | 0.00 | 0.00 | 64 | 1014.2 |
| 20260507123930 | 10 | 210 | 4.8 | 8.0 | 0.00 | 0.00 | 0.00 | 66 | 1014.4 |
| 20260507123427 | 10 | 14 | 6.4 | 8.0 | 0.00 | 0.00 | 0.00 | 57 | 1014.1 |
| 20260507122923 | 10 | 212 | 0.0 | 8.0 | 0.00 | 0.00 | 0.00 | 63 | 1014.2 |
| 20260507122418 | 10 | 128 | 0.0 | 8.0 | 0.00 | 0.00 | 0.00 | 61 | 1014.2 |
| 20260507121915 | 10 | 201 | 1.6 | 6.4 | 0.00 | 0.00 | 0.00 | 69 | 1014.1 |
| 20260507121416 | 10 | 223 | 4.8 | 8.0 | 0.00 | 0.00 | 0.00 | 67 | 1014.0 |
| 20260507120913 | 10 | 335 | 1.6 | 4.8 | 0.00 | 0.00 | 0.00 | 63 | 1014.0 |
| 20260507120409 | 10 | 232 | 3.2 | 8.0 | 0.00 | 0.00 | 0.00 | 64 | 1014.0 |
| 20260507115905 | 10 | 228 | 3.2 | 4.8 | 0.00 | 0.00 | 0.00 | 64 | 1013.9 |
| 20260507115401 | 10 | 264 | 3.2 | 4.8 | 0.00 | 0.00 | 0.00 | 69 | 1014.0 |
| 20260507114857 | 10 | 278 | 1.6 | 4.8 | 0.00 | 0.00 | 0.00 | 71 | 1013.9 |
| 20260507114355 | 10 | 277 | 1.6 | 4.8 | 0.00 | 0.00 | 0.00 | 65 | 1014.0 |
| 20260507113852 | 10 | 240 | 1.6 | 3.2 | 0.00 | 0.00 | 0.00 | 68 | 1014.1 |
| 20260507113349 | 10 | 215 | 0.0 | 4.8 | 0.00 | 0.00 | 0.00 | 68 | 1013.8 |
| 20260507112846 | 10 | 228 | 1.6 | 6.4 | 0.00 | 0.00 | 0.00 | 61 | 1014.0 |
| 20260507112343 | 9 | 203 | 1.6 | 4.8 | 0.00 | 0.00 | 0.00 | 66 | 1014.2 |
| 20260507111841 | 10 | 231 | 0.0 | 6.4 | 0.00 | 0.00 | 0.00 | 68 | 1014.2 |
| 20260507111338 | 9 | 227 | 0.0 | 4.8 | 0.00 | 0.00 | 0.00 | 65 | 1014.0 |
| 20260507110833 | 9 | 349 | 1.6 | 3.2 | 0.00 | 0.00 | 0.00 | 66 | 1014.0 |
| 20260507110330 | 9 | 216 | 3.2 | 3.2 | 0.00 | 0.00 | 0.00 | 73 | 1013.9 |
| 20260507105827 | 9 | 216 | 1.6 | 3.2 | 0.00 | 0.00 | 0.00 | 69 | 1013.8 |
| 20260507105323 | 9 | 202 | 3.2 | 6.4 | 0.00 | 0.00 | 0.00 | 66 | 1013.6 |
| 20260507104820 | 9 | 241 | 3.2 | 4.8 | 0.00 | 0.00 | 0.00 | 70 | 1013.6 |
| 20260507104317 | 9 | 257 | 1.6 | 4.8 | 0.00 | 0.00 | 0.00 | 69 | 1013.4 |
| 20260507103813 | 9 | 235 | 6.4 | 8.0 | 0.00 | 0.00 | 0.00 | 65 | 1013.5 |
| 20260507103309 | 9 | 249 | 3.2 | 4.8 | 0.00 | 0.00 | 0.00 | 70 | 1013.2 |
| 20260507102806 | 9 | 357 | 1.6 | 4.8 | 0.00 | 0.00 | 0.00 | 68 | 1013.1 |
| 20260507102306 | 9 | 57 | 1.6 | 1.6 | 0.00 | 0.00 | 0.00 | 68 | 1013.6 |
| 20260507101759 | 9 | 310 | 0.0 | 4.8 | 0.00 | 0.00 | 0.00 | 75 | 1013.7 |
| 20260507101254 | 10 | 274 | 0.0 | 4.8 | 0.00 | 0.00 | 0.00 | 70 | 1013.2 |
| 20260507100751 | 10 | 252 | 0.0 | 4.8 | 0.00 | 0.00 | 0.00 | 65 | 1013.5 |
| 20260507100250 | 10 | 249 | 0.0 | 3.2 | 0.00 | 0.00 | 0.00 | 68 | 1013.1 |
| 20260507095747 | 10 | 214 | 3.2 | 4.8 | 0.00 | 0.00 | 0.00 | 67 | 1013.3 |
| 20260507095243 | 10 | 259 | 1.6 | 4.8 | 0.00 | 0.00 | 0.00 | 67 | 1012.8 |
| 20260507094741 | 10 | 244 | 1.6 | 4.8 | 0.00 | 0.00 | 0.00 | 68 | 1013.0 |
| 20260507094238 | 10 | 241 | 3.2 | 8.0 | 0.00 | 0.00 | 0.00 | 71 | 1012.7 |
| 20260507093734 | 10 | 104 | 3.2 | 8.0 | 0.00 | 0.00 | 0.00 | 68 | 1012.8 |
| 20260507093233 | 10 | 238 | 1.6 | 3.2 | 0.00 | 0.00 | 0.00 | 69 | 1012.8 |
| 20260507092730 | 10 | 246 | 1.6 | 4.8 | 0.00 | 0.00 | 0.00 | 69 | 1012.9 |
| 20260507092226 | 10 | 269 | 3.2 | 4.8 | 0.00 | 0.00 | 0.00 | 67 | 1012.8 |
| 20260507091723 | 10 | 177 | 1.6 | 4.8 | 0.00 | 0.00 | 0.00 | 67 | 1013.2 |
| 20260507091219 | 10 | 217 | 4.8 | 6.4 | 0.00 | 0.00 | 0.00 | 68 | 1012.8 |
| 20260507090719 | 10 | 144 | 1.6 | 4.8 | 0.00 | 0.00 | 0.00 | 71 | 1012.9 |
| 20260507090216 | 10 | 27 | 0.0 | 9.7 | 0.00 | 0.00 | 0.00 | 69 | 1012.9 |
| 20260507085713 | 10 | 221 | 1.6 | 4.8 | 0.00 | 0.00 | 0.00 | 71 | 1012.9 |
| 20260507085210 | 10 | 244 | 4.8 | 6.4 | 0.00 | 0.00 | 0.00 | 75 | 1012.9 |
| 20260507084707 | 10 | 189 | 1.6 | 6.4 | 0.00 | 0.00 | 0.00 | 77 | 1013.1 |
| 20260507084203 | 10 | 244 | 4.8 | 9.7 | 0.00 | 0.00 | 0.00 | 74 | 1012.8 |
| 20260507083701 | 10 | 237 | 4.8 | 4.8 | 0.00 | 0.00 | 0.00 | 78 | 1012.9 |
| 20260507083157 | 10 | 151 | 1.6 | 4.8 | 0.00 | 0.00 | 0.00 | 76 | 1013.0 |
| 20260507082653 | 10 | 236 | 3.2 | 6.4 | 0.00 | 0.00 | 0.00 | 79 | 1012.8 |
| 20260507082149 | 10 | 266 | 4.8 | 6.4 | 0.00 | 0.00 | 0.00 | 79 | 1012.8 |
| 20260507081646 | 10 | 236 | 6.4 | 8.0 | 0.00 | 0.00 | 0.00 | 83 | 1012.7 |
| 20260507081143 | 10 | 229 | 0.0 | 3.2 | 0.00 | 0.00 | 0.00 | 84 | 1012.6 |
| 20260507080639 | 10 | 248 | 3.2 | 6.4 | 0.00 | 0.00 | 0.00 | 85 | 1012.5 |
| 20260507080137 | 10 | 243 | 1.6 | 8.0 | 0.00 | 0.00 | 0.00 | 83 | 1012.4 |
| 20260507075636 | 11 | 243 | 4.8 | 6.4 | 0.00 | 0.00 | 0.00 | 85 | 1012.4 |
| 20260507075133 | 10 | 215 | 1.6 | 4.8 | 0.00 | 0.00 | 0.00 | 82 | 1012.1 |
| 20260507074630 | 10 | 120 | 0.0 | 8.0 | 0.00 | 0.00 | 0.00 | 82 | 1012.3 |
| 20260507074128 | 11 | 126 | 4.8 | 4.8 | 0.00 | 0.00 | 0.00 | 82 | 1012.2 |
| 20260507073624 | 11 | 320 | 0.0 | 6.4 | 0.00 | 0.00 | 0.00 | 83 | 1012.3 |
| 20260507073121 | 11 | 178 | 0.0 | 6.4 | 0.00 | 0.00 | 0.00 | 82 | 1012.4 |
| 20260507072618 | 11 | 92 | 0.0 | 3.2 | 0.00 | 0.00 | 0.00 | 82 | 1012.1 |
| 20260507072115 | 11 | 224 | 0.0 | 6.4 | 0.00 | 0.00 | 0.00 | 84 | 1012.2 |
| 20260507071613 | 11 | 44 | 0.0 | 3.2 | 0.00 | 0.00 | 0.00 | 85 | 1012.2 |
| 20260507071109 | 11 | 233 | 4.8 | 6.4 | 0.00 | 0.00 | 0.00 | 84 | 1012.4 |
| 20260507070606 | 11 | 186 | 0.0 | 12.9 | 0.00 | 0.00 | 0.00 | 84 | 1012.4 |
| 20260507070103 | 11 | 257 | 0.0 | 4.8 | 0.00 | 0.00 | 0.00 | 85 | 1012.6 |
| 20260507065600 | 10 | 233 | 1.6 | 3.2 | 0.00 | 0.00 | 0.00 | 88 | 1012.6 |
| 20260507065057 | 10 | 218 | 1.6 | 4.8 | 0.00 | 0.00 | 0.00 | 87 | 1012.5 |
| 20260507064555 | 10 | 212 | 3.2 | 8.0 | 0.00 | 0.00 | 0.00 | 90 | 1012.5 |
| 20260507064053 | 10 | 237 | 3.2 | 6.4 | 0.00 | 0.00 | 0.00 | 90 | 1012.7 |
| 20260507063550 | 10 | 248 | 3.2 | 6.4 | 0.00 | 0.00 | 0.00 | 90 | 1012.6 |
| 20260507063047 | 10 | 217 | 4.8 | 4.8 | 0.00 | 0.00 | 0.00 | 88 | 1012.5 |
| 20260507062543 | 11 | 233 | 4.8 | 6.4 | 0.00 | 0.00 | 0.00 | 88 | 1012.8 |
| 20260507062041 | 11 | 251 | 1.6 | 4.8 | 0.00 | 0.00 | 0.00 | 85 | 1012.9 |
| 20260507061539 | 11 | 227 | 4.8 | 6.4 | 0.00 | 0.00 | 0.00 | 87 | 1012.9 |
| 20260507061037 | 11 | 212 | 0.0 | 4.8 | 0.00 | 0.00 | 0.00 | 86 | 1012.7 |
| 20260507060534 | 11 | 281 | 3.2 | 4.8 | 0.00 | 0.00 | 0.00 | 86 | 1012.8 |
| 20260507060031 | 11 | 249 | 3.2 | 4.8 | 0.00 | 0.00 | 0.00 | 83 | 1012.9 |
| 20260507055525 | 11 | 272 | 3.2 | 6.4 | 0.00 | 0.00 | 0.00 | 83 | 1012.7 |
| 20260507055022 | 11 | 284 | 1.6 | 4.8 | 0.00 | 0.00 | 0.00 | 85 | 1012.7 |
| 20260507054518 | 11 | 218 | 1.6 | 3.2 | 0.00 | 0.00 | 0.00 | 84 | 1012.9 |
| 20260507054015 | 11 | 147 | 0.0 | 4.8 | 0.00 | 0.00 | 0.00 | 83 | 1012.7 |
| 20260507053513 | 11 | 191 | 1.6 | 9.7 | 0.00 | 0.00 | 0.00 | 83 | 1012.4 |
| 20260507053011 | 11 | 119 | 0.0 | 4.8 | 0.00 | 0.00 | 0.00 | 85 | 1012.5 |
| 20260507052509 | 11 | 251 | 1.6 | 4.8 | 0.00 | 0.00 | 0.00 | 84 | 1012.5 |
| 20260507052005 | 11 | 252 | 3.2 | 4.8 | 0.00 | 0.00 | 0.00 | 84 | 1012.6 |
| 20260507051503 | 11 | 190 | 1.6 | 4.8 | 0.00 | 0.00 | 0.00 | 84 | 1012.5 |
| 20260507050959 | 11 | 237 | 1.6 | 3.2 | 0.00 | 0.00 | 0.00 | 85 | 1012.8 |
| 20260507050456 | 11 | 60 | 3.2 | 6.4 | 0.00 | 0.00 | 0.00 | 83 | 1012.7 |
| 20260507045953 | 11 | 112 | 1.6 | 3.2 | 0.00 | 0.00 | 0.00 | 84 | 1012.6 |
| 20260507045449 | 11 | 269 | 3.2 | 9.7 | 0.00 | 0.00 | 0.00 | 83 | 1012.6 |
| 20260507044947 | 11 | 223 | 1.6 | 4.8 | 0.00 | 0.00 | 0.00 | 83 | 1012.3 |
| 20260507044443 | 11 | 241 | 6.4 | 8.0 | 0.00 | 0.00 | 0.00 | 82 | 1012.3 |
| 20260507043939 | 11 | 235 | 3.2 | 8.0 | 0.00 | 0.00 | 0.00 | 85 | 1012.3 |
| 20260507043436 | 11 | 271 | 6.4 | 8.0 | 0.00 | 0.00 | 0.00 | 85 | 1012.2 |
| 20260507042932 | 11 | 352 | 0.0 | 4.8 | 0.00 | 0.00 | 0.00 | 86 | 1012.3 |
| 20260507042429 | 11 | 239 | 4.8 | 4.8 | 0.00 | 0.00 | 0.00 | 85 | 1012.3 |
| 20260507041925 | 11 | 259 | 3.2 | 6.4 | 0.00 | 0.00 | 0.00 | 84 | 1012.3 |
| 20260507041422 | 12 | 218 | 1.6 | 9.7 | 0.00 | 0.00 | 0.00 | 85 | 1012.9 |
| 20260507040919 | 11 | 251 | 8.0 | 9.7 | 0.00 | 0.00 | 0.00 | 85 | 1012.7 |
| 20260507040415 | 12 | 256 | 4.8 | 8.0 | 0.00 | 0.00 | 0.00 | 88 | 1012.7 |
| 20260507035911 | 12 | 258 | 6.4 | 9.7 | 0.00 | 0.38 | 0.38 | 88 | 1012.6 |
| 20260507035407 | 12 | 256 | 6.4 | 8.0 | 0.00 | 0.38 | 0.38 | 88 | 1012.7 |
| 20260507034904 | 12 | 335 | 1.6 | 6.4 | 0.00 | 0.38 | 0.38 | 87 | 1012.5 |
| 20260507034401 | 12 | 273 | 4.8 | 8.0 | 0.00 | 0.38 | 0.38 | 89 | 1012.5 |
| 20260507033859 | 12 | 269 | 0.0 | 4.8 | 0.00 | 0.38 | 0.38 | 88 | 1012.7 |
| 20260507033357 | 12 | 181 | 1.6 | 8.0 | 0.00 | 0.38 | 0.38 | 87 | 1012.4 |
| 20260507032853 | 12 | 291 | 4.8 | 8.0 | 0.00 | 0.38 | 0.38 | 87 | 1012.6 |
| 20260507032350 | 12 | 229 | 0.0 | 9.7 | 0.00 | 0.38 | 0.38 | 87 | 1012.3 |
| 20260507031846 | 12 | 300 | 3.2 | 8.0 | 0.00 | 0.38 | 0.38 | 89 | 1012.6 |
| 20260507031343 | 12 | 209 | 3.2 | 9.7 | 0.00 | 0.38 | 0.38 | 90 | 1012.4 |
| 20260507030840 | 12 | 224 | 3.2 | 6.4 | 0.00 | 0.38 | 0.38 | 89 | 1012.5 |
| 20260507030337 | 12 | 221 | 3.2 | 8.0 | 0.00 | 0.38 | 0.38 | 88 | 1012.3 |
| 20260507025834 | 12 | 253 | 4.8 | 8.0 | 0.00 | 0.38 | 0.38 | 88 | 1012.5 |
| 20260507025332 | 12 | 273 | 4.8 | 9.7 | 0.00 | 0.38 | 0.38 | 88 | 1012.3 |
| 20260507024829 | 12 | 253 | 4.8 | 8.0 | 0.00 | 0.38 | 0.38 | 87 | 1012.3 |
| 20260507024326 | 12 | 232 | 3.2 | 6.4 | 0.00 | 0.38 | 0.38 | 87 | 1012.0 |
| 20260507023822 | 13 | 246 | 0.0 | 6.4 | 0.00 | 0.38 | 0.38 | 89 | 1011.9 |
| 20260507023319 | 13 | 111 | 1.6 | 3.2 | 0.00 | 0.38 | 0.38 | 87 | 1012.2 |
| 20260507022816 | 13 | 212 | 0.0 | 9.7 | 0.00 | 0.38 | 0.38 | 88 | 1011.9 |
| 20260507022312 | 13 | 198 | 3.2 | 6.4 | 0.00 | 0.38 | 0.38 | 86 | 1011.8 |
| 20260507021809 | 13 | 303 | 0.0 | 4.8 | 0.00 | 0.38 | 0.38 | 87 | 1012.1 |
| 20260507021304 | 13 | 297 | 4.8 | 8.0 | 0.00 | 0.38 | 0.38 | 86 | 1011.9 |
| 20260507020802 | 13 | 215 | 1.6 | 9.7 | 0.00 | 0.38 | 0.38 | 87 | 1012.1 |
| 20260507020259 | 13 | 129 | 0.0 | 4.8 | 0.00 | 0.38 | 0.38 | 88 | 1011.7 |
| 20260507015756 | 13 | 159 | 0.0 | 4.8 | 0.00 | 0.38 | 0.38 | 86 | 1012.1 |
| 20260507015253 | 13 | 257 | 1.6 | 4.8 | 0.00 | 0.38 | 0.38 | 88 | 1011.8 |
| 20260507014750 | 13 | 324 | 0.0 | 4.8 | 0.00 | 0.38 | 0.38 | 87 | 1011.9 |
| 20260507014246 | 13 | 186 | 0.0 | 3.2 | 0.00 | 0.38 | 0.38 | 89 | 1011.8 |
| 20260507013743 | 13 | 65 | 3.2 | 14.5 | 0.00 | 0.38 | 0.38 | 87 | 1012.0 |
| 20260507013241 | 13 | 95 | 3.2 | 8.0 | 0.00 | 0.38 | 0.38 | 89 | 1011.8 |
| 20260507012738 | 13 | 227 | 1.6 | 8.0 | 0.00 | 0.38 | 0.38 | 88 | 1011.5 |
| 20260507012233 | 13 | 335 | 0.0 | 3.2 | 0.00 | 0.38 | 0.38 | 89 | 1011.8 |
| 20260507011731 | 13 | 239 | 0.0 | 4.8 | 0.00 | 0.38 | 0.38 | 89 | 1011.5 |
| 20260507011228 | 13 | 254 | 3.2 | 6.4 | 0.00 | 0.38 | 0.38 | 89 | 1011.6 |
| 20260507010727 | 13 | 238 | 1.6 | 6.4 | 0.00 | 0.38 | 0.38 | 89 | 1011.4 |
| 20260507010223 | 14 | 261 | 6.4 | 6.4 | 0.00 | 0.38 | 0.38 | 90 | 1011.6 |
| 20260507005721 | 14 | 207 | 3.2 | 8.0 | 0.00 | 0.38 | 0.38 | 87 | 1011.9 |
| 20260507005217 | 14 | 252 | 8.0 | 9.7 | 0.00 | 0.38 | 0.38 | 88 | 1011.8 |
| 20260507004714 | 14 | 266 | 6.4 | 9.7 | 0.00 | 0.38 | 0.38 | 88 | 1012.3 |
| 20260507004212 | 14 | 235 | 6.4 | 14.5 | 0.00 | 0.38 | 0.38 | 91 | 1011.7 |
| 20260507003707 | 14 | 283 | 6.4 | 8.0 | 0.00 | 0.38 | 0.38 | 93 | 1012.2 |
| 20260507003203 | 14 | 257 | 3.2 | 4.8 | 0.00 | 0.38 | 0.38 | 90 | 1011.7 |
| 20260507002659 | 15 | 241 | 1.6 | 4.8 | 0.00 | 0.38 | 0.38 | 91 | 1011.7 |
| 20260507002155 | 15 | 242 | 3.2 | 4.8 | 0.00 | 0.38 | 0.38 | 91 | 1011.7 |
| 20260507001652 | 15 | 227 | 3.2 | 6.4 | 0.00 | 0.38 | 0.38 | 92 | 1011.7 |
| 20260507001150 | 15 | 241 | 4.8 | 8.0 | 0.00 | 0.38 | 0.38 | 92 | 1011.5 |
| 20260507000646 | 15 | 262 | 4.8 | 11.3 | 0.00 | 0.38 | 0.38 | 92 | 1011.6 |
| 20260507000141 | 15 | 230 | 4.8 | 11.3 | 0.00 | 0.38 | 0.38 | 93 | 1011.3 |
| 20260506235639 | 15 | 337 | 1.6 | 8.0 | 0.00 | 0.38 | 0.38 | 92 | 1011.1 |
| 20260506235139 | 15 | 252 | 4.8 | 9.7 | 0.00 | 0.38 | 0.38 | 94 | 1011.3 |
| 20260506234636 | 15 | 219 | 3.2 | 8.0 | 0.00 | 0.38 | 0.38 | 94 | 1011.1 |
| 20260506234133 | 15 | 295 | 8.0 | 11.3 | 0.00 | 0.38 | 0.38 | 95 | 1010.9 |
| 20260506233630 | 15 | 253 | 0.0 | 6.4 | 0.00 | 0.38 | 0.38 | 97 | 1011.0 |
| 20260506233127 | 15 | 264 | 3.2 | 6.4 | 0.00 | 0.38 | 0.38 | 97 | 1010.7 |
| 20260506232623 | 15 | 198 | 3.2 | 8.0 | 0.00 | 0.38 | 0.38 | 97 | 1010.3 |
| 20260506232119 | 16 | 231 | 6.4 | 8.0 | 0.00 | 0.38 | 0.38 | 97 | 1010.3 |
| 20260506231616 | 16 | 230 | 3.2 | 6.4 | 0.00 | 0.38 | 0.38 | 97 | 1010.3 |
| 20260506231115 | 16 | 231 | 3.2 | 6.4 | 0.00 | 0.38 | 0.38 | 97 | 1010.2 |
| 20260506230611 | 16 | 233 | 6.4 | 11.3 | 0.00 | 0.38 | 0.38 | 96 | 1010.2 |
| 20260506230108 | 16 | 254 | 4.8 | 9.7 | 0.00 | 0.38 | 0.38 | 95 | 1010.2 |
| 20260506225604 | 16 | 251 | 4.8 | 6.4 | 0.00 | 0.38 | 0.38 | 95 | 1010.3 |
| 20260506225101 | 16 | 245 | 6.4 | 8.0 | 0.00 | 0.38 | 0.38 | 95 | 1010.2 |
| 20260506224558 | 16 | 234 | 4.8 | 8.0 | 0.00 | 0.38 | 0.38 | 95 | 1010.4 |
| 20260506224054 | 16 | 233 | 4.8 | 8.0 | 0.00 | 0.38 | 0.38 | 95 | 1010.1 |
| 20260506223550 | 16 | 264 | 4.8 | 8.0 | 0.00 | 0.38 | 0.38 | 95 | 1010.0 |
| 20260506223047 | 16 | 267 | 4.8 | 8.0 | 0.00 | 0.38 | 0.38 | 95 | 1010.0 |
| 20260506222544 | 16 | 266 | 4.8 | 6.4 | 0.00 | 0.38 | 0.38 | 96 | 1010.0 |
| 20260506222040 | 17 | 267 | 3.2 | 4.8 | 0.00 | 0.38 | 0.38 | 97 | 1009.8 |
| 20260506221538 | 17 | 242 | 3.2 | 6.4 | 0.00 | 0.38 | 0.38 | 97 | 1009.9 |
| 20260506221036 | 17 | 229 | 1.6 | 4.8 | 0.00 | 0.38 | 0.38 | 98 | 1010.0 |
| 20260506220531 | 17 | 244 | 1.6 | 3.2 | 0.00 | 0.38 | 0.38 | 98 | 1010.0 |
| 20260506220027 | 17 | 244 | 3.2 | 3.2 | 0.00 | 0.38 | 0.38 | 98 | 1009.9 |
| 20260506215524 | 17 | 266 | 0.0 | 3.2 | 0.00 | 0.38 | 0.38 | 98 | 1009.9 |
| 20260506215020 | 17 | 267 | 0.0 | 1.6 | 0.00 | 0.38 | 0.38 | 97 | 1009.7 |
| 20260506214517 | 17 | 293 | 0.0 | 1.6 | 0.00 | 0.38 | 0.38 | 97 | 1009.6 |
| 20260506214014 | 17 | 256 | 0.0 | 3.2 | 0.00 | 0.38 | 0.38 | 97 | 1009.7 |
| 20260506213513 | 17 | 252 | 1.6 | 3.2 | 0.00 | 0.38 | 0.38 | 97 | 1009.8 |
| 20260506213009 | 17 | 233 | 0.0 | 1.6 | 0.00 | 0.38 | 0.38 | 96 | 1009.6 |
| 20260506212505 | 17 | 309 | 0.0 | 1.6 | 0.00 | 0.38 | 0.38 | 96 | 1009.5 |
| 20260506212000 | 17 | 30 | 0.0 | 1.6 | 0.00 | 0.38 | 0.38 | 96 | 1009.4 |
| 20260506211456 | 17 | 235 | 0.0 | 0.0 | 0.00 | 0.38 | 0.38 | 95 | 1009.5 |
| 20260506210954 | 17 | 124 | 0.0 | 0.0 | 0.00 | 0.38 | 0.38 | 95 | 1009.3 |
| 20260506210450 | 18 | 309 | 0.0 | 3.2 | 0.00 | 0.38 | 0.38 | 95 | 1009.2 |
| 20260506205947 | 18 | 150 | 0.0 | 3.2 | 0.00 | 0.38 | 0.38 | 93 | 1009.0 |
| 20260506205443 | 18 | 93 | 3.2 | 4.8 | 0.00 | 0.38 | 0.38 | 93 | 1009.0 |
| 20260506204940 | 18 | 14 | 0.0 | 3.2 | 0.00 | 0.38 | 0.38 | 93 | 1008.8 |
| 20260506204438 | 17 | 76 | 0.0 | 4.8 | 0.00 | 0.38 | 0.38 | 95 | 1008.7 |
| 20260506203935 | 17 | 235 | 3.2 | 4.8 | 0.00 | 0.38 | 0.38 | 95 | 1009.0 |
| 20260506203432 | 17 | 100 | 1.6 | 4.8 | 0.00 | 0.38 | 0.38 | 95 | 1008.8 |
| 20260506202929 | 17 | 130 | 0.0 | 6.4 | 0.00 | 0.38 | 0.38 | 95 | 1008.9 |
| 20260506202426 | 17 | 138 | 3.2 | 6.4 | 0.00 | 0.38 | 0.38 | 95 | 1008.9 |
| 20260506201922 | 17 | 129 | 4.8 | 6.4 | 0.00 | 0.38 | 0.38 | 96 | 1008.8 |
| 20260506201420 | 17 | 74 | 3.2 | 4.8 | 0.00 | 0.38 | 0.38 | 96 | 1009.0 |
| 20260506200916 | 17 | 98 | 0.0 | 4.8 | 0.00 | 0.38 | 0.38 | 96 | 1008.9 |
| 20260506200412 | 17 | 93 | 0.0 | 6.4 | 0.00 | 0.38 | 0.38 | 96 | 1008.8 |
| 20260506195909 | 17 | 156 | 3.2 | 4.8 | 0.00 | 0.38 | 0.38 | 97 | 1008.6 |
| 20260506195407 | 17 | 161 | 1.6 | 3.2 | 0.00 | 0.38 | 0.38 | 97 | 1009.0 |
| 20260506194903 | 17 | 134 | 1.6 | 4.8 | 0.00 | 0.38 | 0.38 | 96 | 1009.0 |
| 20260506194400 | 17 | 132 | 3.2 | 4.8 | 0.00 | 0.38 | 0.38 | 96 | 1008.9 |
| 20260506193857 | 17 | 141 | 0.0 | 4.8 | 0.00 | 0.38 | 0.38 | 96 | 1009.0 |
| 20260506193354 | 17 | 161 | 0.0 | 4.8 | 0.00 | 0.38 | 0.38 | 96 | 1008.8 |
| 20260506192850 | 17 | 146 | 0.0 | 4.8 | 0.00 | 0.38 | 0.38 | 96 | 1008.9 |
| 20260506192347 | 17 | 145 | 3.2 | 4.8 | 0.00 | 0.38 | 0.38 | 95 | 1009.1 |
| 20260506191844 | 17 | 68 | 4.8 | 4.8 | 0.00 | 0.38 | 0.38 | 95 | 1009.1 |
| 20260506191340 | 17 | 81 | 4.8 | 4.8 | 0.00 | 0.38 | 0.38 | 94 | 1008.9 |
| 20260506190837 | 17 | 89 | 0.0 | 6.4 | 0.00 | 0.38 | 0.38 | 94 | 1009.3 |
| 20260506190334 | 17 | 113 | 0.0 | 3.2 | 0.00 | 0.38 | 0.38 | 94 | 1009.3 |
| 20260506185831 | 17 | 103 | 0.0 | 0.0 | 0.00 | 0.38 | 0.38 | 93 | 1009.1 |
| 20260506185328 | 17 | 103 | 0.0 | 4.8 | 0.00 | 0.38 | 0.38 | 94 | 1009.2 |
| 20260506184825 | 17 | 129 | 0.0 | 3.2 | 0.00 | 0.38 | 0.38 | 94 | 1009.4 |
| 20260506184322 | 17 | 89 | 0.0 | 1.6 | 0.00 | 0.38 | 0.38 | 95 | 1009.3 |
| 20260506183819 | 17 | 230 | 0.0 | 3.2 | 0.00 | 0.38 | 0.38 | 94 | 1009.2 |
| 20260506183314 | 17 | 236 | 0.0 | 1.6 | 0.00 | 0.38 | 0.38 | 94 | 1009.4 |
| 20260506182812 | 17 | 217 | 0.0 | 0.0 | 0.05 | 0.38 | 0.38 | 94 | 1009.4 |
| 20260506182309 | 17 | 347 | 1.6 | 4.8 | 0.05 | 0.38 | 0.38 | 95 | 1009.3 |
| 20260506181807 | 17 | 235 | 0.0 | 1.6 | 0.00 | 0.38 | 0.38 | 95 | 1009.4 |
| 20260506181304 | 17 | 230 | 0.0 | 1.6 | 0.00 | 0.38 | 0.38 | 95 | 1009.5 |
| 20260506180801 | 17 | 50 | 0.0 | 11.3 | 0.00 | 0.38 | 0.38 | 95 | 1009.3 |
| 20260506180257 | 17 | 107 | 0.0 | 12.9 | 0.00 | 0.38 | 0.38 | 94 | 1009.7 |
| 20260506175753 | 17 | 36 | 1.6 | 3.2 | 0.05 | 0.38 | 0.38 | 95 | 1009.3 |
| 20260506175250 | 17 | 123 | 1.6 | 4.8 | 0.05 | 0.38 | 0.38 | 94 | 1009.3 |
| 20260506174748 | 17 | 228 | 0.0 | 3.2 | 0.00 | 0.36 | 0.36 | 93 | 1009.5 |
| 20260506174245 | 17 | 296 | 0.0 | 4.8 | 0.00 | 0.36 | 0.36 | 93 | 1009.5 |
| 20260506173743 | 17 | 226 | 0.0 | 3.2 | 0.00 | 0.36 | 0.36 | 90 | 1009.4 |
| 20260506173239 | 17 | 230 | 0.0 | 3.2 | 0.00 | 0.36 | 0.36 | 90 | 1009.2 |
| 20260506172736 | 17 | 230 | 0.0 | 6.4 | 0.00 | 0.36 | 0.36 | 89 | 1009.3 |
| 20260506172232 | 18 | 217 | 0.0 | 4.8 | 0.00 | 0.36 | 0.36 | 88 | 1009.3 |
| 20260506171730 | 18 | 142 | 0.0 | 9.7 | 0.00 | 0.36 | 0.36 | 88 | 1009.2 |
| 20260506171227 | 18 | 174 | 0.0 | 6.4 | 0.00 | 0.36 | 0.36 | 87 | 1009.4 |
| 20260506170725 | 18 | 228 | 1.6 | 8.0 | 0.00 | 0.36 | 0.36 | 86 | 1009.1 |
| 20260506170221 | 18 | 131 | 3.2 | 12.9 | 0.00 | 0.36 | 0.36 | 86 | 1009.1 |
| 20260506165720 | 18 | 160 | 3.2 | 6.4 | 0.00 | 0.36 | 0.36 | 87 | 1009.1 |
| 20260506165216 | 18 | 230 | 1.6 | 11.3 | 0.00 | 0.36 | 0.36 | 86 | 1009.2 |
| 20260506164714 | 18 | 30 | 4.8 | 9.7 | 0.00 | 0.36 | 0.36 | 88 | 1009.2 |
| 20260506164211 | 18 | 307 | 3.2 | 4.8 | 0.00 | 0.36 | 0.36 | 88 | 1009.1 |
| 20260506163707 | 18 | 246 | 0.0 | 3.2 | 0.00 | 0.36 | 0.36 | 88 | 1009.1 |
| 20260506163202 | 18 | 246 | 3.2 | 3.2 | 0.00 | 0.36 | 0.36 | 88 | 1009.1 |